This is the latest recevied weather packets stored in our database for station/object DB0TGO-14. If no packets are shown the sender has not sent any weather packets the latest 10 day(s).
| Time | Temp. | Humidity | Pressure | Rain* | Wind** | Luminosity | Snow |
|---|---|---|---|---|---|---|---|
| 1777477157 | 15.56° C | 29% | 1030.5 hPa | 0 mm | - | - | - |
| 1777476158 | 15.56° C | 28% | 1030.5 hPa | 0 mm | - | - | - |
| 1777475184 | 16.11° C | 28% | 1030.6 hPa | 0 mm | - | - | - |
| 1777474247 | 15° C | 29% | 1030.5 hPa | 0 mm | - | - | - |
| 1777474185 | 15° C | 29% | 1030.5 hPa | 0 mm | - | - | - |
| 1777474065 | 15.56° C | 30% | 1030.5 hPa | 0 mm | - | - | - |
| 1777473960 | 15.56° C | 29% | 1030.6 hPa | 0 mm | - | - | - |
| 1777473840 | 15.56° C | 28% | 1030.5 hPa | 0 mm | - | - | - |
| 1777473720 | 15.56° C | 29% | 1030.5 hPa | 0 mm | - | - | - |
| 1777473610 | 15.56° C | 28% | 1030.5 hPa | 0 mm | - | - | - |
| 1777473505 | 15.56° C | 28% | 1030.5 hPa | 0 mm | - | - | - |
| 1777473395 | 15.56° C | 28% | 1030.5 hPa | 0 mm | - | - | - |
| 1777473284 | 16.11° C | 29% | 1030.5 hPa | 0 mm | - | - | - |
| 1777473173 | 16.11° C | 28% | 1030.5 hPa | 0 mm | - | - | - |
| 1777472227 | 16.11° C | 26% | 1030.5 hPa | 0 mm | - | - | - |
| 1777471310 | 16.11° C | 27% | 1030.6 hPa | 0 mm | - | - | - |
| 1777468373 | 15.56° C | 26% | 1030.9 hPa | 0 mm | - | - | - |
| 1777467232 | 13.89° C | 31% | 1030.9 hPa | 0 mm | - | - | - |
| 1777466148 | 14.44° C | 29% | 1031 hPa | 0 mm | - | - | - |
| 1777465177 | 14.44° C | 30% | 1031 hPa | 0 mm | - | - | - |
| 1777464167 | 14.44° C | 30% | 1031.1 hPa | 0 mm | - | - | - |
| 1777463083 | 13.89° C | 30% | 1031.3 hPa | 0 mm | - | - | - |
| 1777461983 | 13.33° C | 30% | 1031.3 hPa | 0 mm | - | - | - |
| 1777460998 | 13.33° C | 29% | 1031.4 hPa | 0 mm | - | - | - |
| 1777459945 | 13.33° C | 29% | 1031.5 hPa | 0 mm | - | - | - |
* Rain latest hour (hover to see other rain measurements)
** Current wind speed in m/s (hover to see current wind gust speed)